Date String (YYYY-MM-DD hh:mm:ss) UTC,Instrument flags,Ambient pressure (hPa),Sample flow (lpm),Bypass flow (lpm),Sample temperature (°C),Ambient temperature (°C),ASC tube jacket temperature (°C),LED temperature (°C),Box temperature (°C),Sample RH (%),Span deviation,Mass concentration (μg/m³),Mass concentration (μg/m³),Mass concentration (μg/m³)
DateTimeUTC,F1_M11,P_M11,Q1_M11,Q2_M11,T1_M11,T2_M11,T3_M11,T4_M11,T5_M11,U1_M11,ZSPAN_M11,X0_M11,X2_M11,X1_M11
2022-09-15 04:00:00,,0823.4,4.99,0.00,30.3,29.0,00.0,39.0,32.1,22.4,0000.0,0001.72,0001.32,0001.21
2022-09-15 04:01:00,,0823.4,5.01,0.00,30.3,29.0,00.0,39.0,32.1,22.2,0000.0,0001.66,0001.32,0001.21
2022-09-15 04:02:00,,0823.4,5.00,0.00,30.3,29.0,00.0,39.0,32.2,22.5,0000.0,0001.70,0001.35,0001.23
2022-09-15 04:03:00,,0823.4,4.99,0.00,30.4,29.1,00.0,39.1,32.2,22.8,0000.0,0001.71,0001.36,0001.26
2022-09-15 04:04:00,,0823.4,5.01,0.00,30.4,29.1,00.0,39.1,32.2,22.9,0000.0,0001.77,0001.41,0001.29
2022-09-15 04:05:00,,0823.4,5.00,0.00,30.4,29.1,00.0,39.1,32.2,22.8,0000.0,0001.80,0001.42,0001.30
2022-09-15 04:06:00,,0823.4,5.01,0.00,30.4,29.1,00.0,39.1,32.2,22.5,0000.0,0001.77,0001.44,0001.33
2022-09-15 04:07:00,,0823.3,4.99,0.00,30.4,29.1,00.0,39.1,32.2,22.5,0000.0,0001.87,0001.46,0001.35
2022-09-15 04:08:00,,0823.3,5.00,0.00,30.4,29.1,00.0,39.1,32.2,22.8,0000.0,0001.94,0001.49,0001.37
2022-09-15 04:09:00,,0823.4,5.00,0.00,30.4,29.1,00.0,39.1,32.2,23.2,0000.0,0001.93,0001.49,0001.37
2022-09-15 04:10:00,,0823.3,4.99,0.00,30.4,29.1,00.0,39.2,32.3,23.6,0000.0,0001.86,0001.46,0001.37
2022-09-15 04:11:00,,0823.4,5.02,0.00,30.5,29.1,00.0,39.2,32.3,23.8,0000.0,0001.86,0001.47,0001.36
2022-09-15 04:12:00,,0823.4,4.98,0.00,30.5,29.1,00.0,39.2,32.3,23.9,0000.0,0001.86,0001.47,0001.36
2022-09-15 04:13:00,,0823.4,5.01,0.00,30.5,29.1,00.0,39.2,32.3,24.1,0000.0,0001.85,0001.47,0001.36
2022-09-15 04:14:00,,0823.5,4.99,0.00,30.5,29.1,00.0,39.2,32.3,24.2,0000.0,0001.85,0001.47,0001.36
2022-09-15 04:15:00,,0823.5,5.01,0.00,30.5,29.2,00.0,39.2,32.3,24.3,0000.0,0001.82,0001.45,0001.35
2022-09-15 04:16:00,,0823.5,5.00,0.00,30.5,29.2,00.0,39.2,32.3,24.3,0000.0,0001.87,0001.46,0001.34
2022-09-15 04:17:00,,0823.5,4.99,0.00,30.5,29.2,00.0,39.2,32.3,24.3,0000.0,0001.90,0001.45,0001.33
2022-09-15 04:18:00,,0823.5,5.01,0.00,30.5,29.2,00.0,39.2,32.3,24.3,0000.0,0001.80,0001.43,0001.33
2022-09-15 04:19:00,,0823.5,4.99,0.00,30.5,29.2,00.0,39.3,32.4,24.3,0000.0,0001.78,0001.43,0001.33
2022-09-15 04:20:00,,0823.6,5.01,0.00,30.6,29.2,00.0,39.3,32.4,24.3,0000.0,0001.79,0001.45,0001.34
2022-09-15 04:21:00,,0823.6,4.99,0.00,30.6,29.3,00.0,39.3,32.4,24.2,0000.0,0001.83,0001.46,0001.34
2022-09-15 04:22:00,,0823.6,5.00,0.00,30.6,29.2,00.0,39.3,32.4,24.1,0000.0,0001.94,0001.45,0001.34
2022-09-15 04:23:00,,0823.7,4.99,0.00,30.6,29.3,00.0,39.3,32.4,24.1,0000.0,0001.95,0001.45,0001.34
2022-09-15 04:24:00,,0823.7,5.01,0.00,30.6,29.3,00.0,39.3,32.4,24.1,0000.0,0001.98,0001.44,0001.33
2022-09-15 04:25:00,,0823.7,5.00,0.00,30.6,29.3,00.0,39.3,32.4,24.1,0000.0,0002.06,0001.46,0001.32
2022-09-15 04:26:00,,0823.7,5.00,0.00,30.6,29.2,00.0,39.3,32.4,24.1,0000.0,0002.06,0001.46,0001.33
2022-09-15 04:27:00,,0823.7,5.00,0.00,30.6,28.2,00.0,39.3,32.4,24.2,0000.0,0002.03,0001.44,0001.33
2022-09-15 04:28:00,,0823.7,5.00,0.00,30.6,26.9,00.0,39.3,32.3,24.1,0000.0,0002.42,0001.43,0001.31
2022-09-15 04:29:00,,0823.7,5.01,0.00,30.5,26.8,00.0,39.2,32.2,24.2,0000.0,0002.59,0001.48,0001.31
2022-09-15 04:30:00,,0823.7,4.99,0.00,30.4,27.0,00.0,39.2,32.0,24.4,0000.0,0002.60,0001.47,0001.30
2022-09-15 04:31:00,,0823.7,5.00,0.00,30.3,27.4,00.0,39.1,31.9,24.5,0000.0,0002.59,0001.46,0001.28
2022-09-15 04:32:00,,0823.6,5.00,0.00,30.3,27.7,00.0,39.1,31.9,24.6,0000.0,0002.58,0001.46,0001.27
2022-09-15 04:33:00,,0823.7,5.00,0.00,30.2,27.9,00.0,39.1,31.9,24.6,0000.0,0002.66,0001.45,0001.26
2022-09-15 04:34:00,,0823.7,5.00,0.00,30.2,28.1,00.0,39.0,31.9,24.7,0000.0,0004.12,0001.47,0001.26
2022-09-15 04:35:00,,0823.7,5.00,0.00,30.2,28.2,00.0,39.0,31.9,24.8,0000.0,0004.23,0001.50,0001.26
2022-09-15 04:36:00,,0823.7,5.00,0.00,30.2,28.3,00.0,39.0,31.9,24.9,0000.0,0004.18,0001.48,0001.26
2022-09-15 04:37:00,,0823.7,5.01,0.00,30.2,28.4,00.0,39.0,31.9,25.2,0000.0,0004.38,0001.50,0001.25
2022-09-15 04:38:00,,0823.7,5.00,0.00,30.2,28.5,00.0,39.0,32.0,24.8,0000.0,0004.53,0001.52,0001.27
2022-09-15 04:39:00,,0823.7,5.00,0.00,30.2,28.6,00.0,39.0,32.0,24.6,0000.0,0004.25,0001.56,0001.30
2022-09-15 04:40:00,,0823.7,5.01,0.00,30.2,28.6,00.0,39.0,32.0,25.0,0000.0,0004.47,0001.57,0001.31
2022-09-15 04:41:00,,0823.7,4.99,0.00,30.2,28.7,00.0,39.0,32.0,25.0,0000.0,0004.51,0001.59,0001.32
2022-09-15 04:42:00,,0823.7,4.99,0.00,30.2,28.7,00.0,39.0,32.0,24.8,0000.0,0004.56,0001.62,0001.33
2022-09-15 04:43:00,,0823.7,5.01,0.00,30.2,28.7,00.0,39.0,32.0,24.8,0000.0,0004.61,0001.64,0001.35
2022-09-15 04:44:00,,0823.7,4.99,0.00,30.2,28.8,00.0,39.0,32.0,24.6,0000.0,0004.50,0001.68,0001.37
2022-09-15 04:45:00,,0823.7,5.00,0.00,30.2,28.8,00.0,39.0,32.0,24.6,0000.0,0003.06,0001.68,0001.39
2022-09-15 04:46:00,,0823.7,5.00,0.00,30.2,28.9,00.0,39.0,32.1,24.4,0000.0,0002.98,0001.67,0001.40
2022-09-15 04:47:00,,0823.7,4.99,0.00,30.3,28.9,00.0,39.0,32.1,24.1,0000.0,0003.06,0001.70,0001.41
2022-09-15 04:48:00,,0823.8,5.01,0.00,30.3,28.9,00.0,39.0,32.1,24.1,0000.0,0003.05,0001.73,0001.41
2022-09-15 04:49:00,,0823.8,5.00,0.00,30.3,28.9,00.0,39.0,32.1,23.9,0000.0,0002.96,0001.74,0001.39
2022-09-15 04:50:00,,0823.7,5.00,0.00,30.3,29.0,00.0,39.0,32.1,23.8,0000.0,0002.90,0001.73,0001.38
2022-09-15 04:51:00,,0823.7,5.01,0.00,30.3,29.0,00.0,39.0,32.1,23.7,0000.0,0002.47,0001.70,0001.38
2022-09-15 04:52:00,,0823.8,4.99,0.00,30.3,29.0,00.0,39.1,32.2,23.5,0000.0,0002.37,0001.67,0001.38
2022-09-15 04:53:00,,0823.8,5.01,0.00,30.4,29.0,00.0,39.1,32.2,23.5,0000.0,0002.36,0001.66,0001.38
2022-09-15 04:54:00,,0823.7,5.00,0.00,30.4,29.1,00.0,39.1,32.2,23.5,0000.0,0002.33,0001.65,0001.38
2022-09-15 04:55:00,,0823.8,5.01,0.00,30.4,29.1,00.0,39.1,32.2,23.4,0000.0,0002.28,0001.63,0001.38
2022-09-15 04:56:00,,0823.7,4.99,0.00,30.4,29.1,00.0,39.1,32.2,23.3,0000.0,0002.22,0001.60,0001.37
2022-09-15 04:57:00,,0823.8,5.00,0.00,30.4,29.1,00.0,39.1,32.2,23.3,0000.0,0002.23,0001.62,0001.37
2022-09-15 04:58:00,,0823.8,4.99,0.00,30.4,29.1,00.0,39.1,32.2,23.2,0000.0,0002.12,0001.60,0001.38
2022-09-15 04:59:00,,0823.8,5.01,0.00,30.4,29.1,00.0,39.1,32.2,23.0,0000.0,0002.00,0001.58,0001.38
